Williston, ND

1:37 AM CDT on October 17, 2017 (GMT -0500)
Sloulin International

Weather History for KISN - December, 2014

Change the Weather History Date:

Wednesday, December 17, 2014

  Actual Average Record
Temperature  
Mean Temperature 20 °F 13 °F  
Max Temperature 22 °F 24 °F 52 °F (1998)
Min Temperature 17 °F 3 °F -37 °F (1906)
Degree Days  
Heating Degree Days 45 52  
Month to date heating degree days 735 838  
Since 1 July heating degree days 2928 3000  
Cooling Degree Days 0 0  
Month to date cooling degree days 0 0  
Year to date cooling degree days 425 456  
Moisture  
Dew Point 13 °F    
Average Humidity 76    
Maximum Humidity 84    
Minimum Humidity 68    
Precipitation  
Precipitation T in 0.01 in 0.29 in (1970)
Month to date precipitation 0.01 0.32  
Year to date precipitation 10.66 14.07  
Sea Level Pressure  
Sea Level Pressure 30.24 in    
Wind  
Wind Speed 10 mph (SSE)    
Max Wind Speed 15 mph    
Max Gust Speed 20 mph    
Visibility 10 miles    
Events Snow    
T = Trace of Precipitation, MM = Missing Value Source: NWS Daily Summary

Daily Weather History Graph

Daily Weather History Graph

Search for Another Location

Airport or City:

Trip Planner

Search our weather history database for the weather conditions in past years. The results will help you decide how hot, cold, wet, or windy it might be!

Date:

Astronomy

Dec. 17, 2014 Rise Set
Actual Time 8:39 AM CST 5:01 PM CST
Civil Twilight 8:03 AM CST 5:38 PM CST
Nautical Twilight 7:23 AM CST 6:17 PM CST
Astronomical Twilight 6:45 AM CST 6:55 PM CST
Moon 3:38 AM CST 2:22 PM CST
Length of Visible Light 9h 34m
Length of Day
8h 21m
Waning Crescent, 21% of the Moon is Illuminated
Dec 17
Waning Crescent
Dec 21
New
Dec 28
First Quarter
Jan 4
Full
Jan 13
Last Quarter

Hourly Weather History & Observations

Time (CST) Temp. Windchill Dew Point Humidity Pressure Visibility Wind Dir Wind Speed Gust Speed Precip Events Conditions
12:52 AM 21.9 °F 11.0 °F 15.1 °F 75% 30.32 in 10.0 mi SSE 10.4 mph - N/A   Overcast
1:52 AM 21.0 °F 11.4 °F 15.1 °F 78% 30.30 in 10.0 mi SSE 8.1 mph - N/A   Overcast
2:52 AM 21.0 °F 10.6 °F 14.0 °F 74% 30.30 in 10.0 mi SE 9.2 mph - N/A   Overcast
3:08 AM 19.9 °F 11.1 °F 15.1 °F 81% 30.19 in 10.0 mi SSE 6.9 mph - N/A   Overcast
3:52 AM 19.9 °F 10.1 °F 14.0 °F 78% 30.30 in 10.0 mi SSE 8.1 mph - N/A   Overcast
4:52 AM 19.9 °F 10.1 °F 14.0 °F 78% 30.29 in 10.0 mi SSE 8.1 mph - N/A   Overcast
5:52 AM 19.0 °F 8.2 °F 12.9 °F 77% 30.27 in 10.0 mi SE 9.2 mph - N/A   Overcast
6:52 AM 19.0 °F 9.0 °F 12.9 °F 77% 30.28 in 10.0 mi SE 8.1 mph - N/A   Overcast
7:52 AM 18.0 °F 6.1 °F 12.0 °F 78% 30.28 in 10.0 mi South 10.4 mph - N/A   Overcast
8:52 AM 18.0 °F 5.4 °F 12.0 °F 78% 30.28 in 10.0 mi South 11.5 mph 20.7 mph 0.00 in   Overcast
9:52 AM 18.0 °F 5.4 °F 12.0 °F 78% 30.29 in 5.0 mi SSE 11.5 mph - 0.00 in Snow Light Snow
10:52 AM 18.0 °F 5.4 °F 12.0 °F 78% 30.29 in 5.0 mi SSE 11.5 mph - 0.00 in Snow Light Snow
11:52 AM 19.0 °F 6.1 °F 12.0 °F 74% 30.26 in 9.0 mi SE 12.7 mph 18.4 mph 0.00 in   Overcast
12:52 PM 19.0 °F 8.2 °F 12.0 °F 74% 30.24 in 10.0 mi South 9.2 mph - N/A   Overcast
1:52 PM 19.9 °F 6.7 °F 12.9 °F 74% 30.22 in 10.0 mi SSE 13.8 mph - N/A   Overcast
2:52 PM 21.0 °F 9.9 °F 12.9 °F 71% 30.21 in 10.0 mi SE 10.4 mph - N/A   Overcast
3:52 PM 19.4 °F 6.6 °F 12.2 °F 74% 30.11 in 10.0 mi SSE 12.7 mph - N/A   Overcast
4:52 PM 19.9 °F 7.9 °F 12.9 °F 74% 30.21 in 10.0 mi South 11.5 mph - N/A   Overcast
5:52 PM 19.9 °F 8.6 °F 12.9 °F 74% 30.21 in 10.0 mi SSE 10.4 mph - N/A   Overcast
6:52 PM 19.9 °F 9.3 °F 12.9 °F 74% 30.20 in 10.0 mi SSE 9.2 mph - N/A   Overcast
7:52 PM 19.9 °F 11.1 °F 14.0 °F 78% 30.20 in 10.0 mi SE 6.9 mph - N/A   Overcast
8:52 PM 19.9 °F 8.6 °F 14.0 °F 78% 30.19 in 10.0 mi SE 10.4 mph - N/A   Overcast
9:52 PM 19.9 °F 10.1 °F 14.0 °F 78% 30.18 in 10.0 mi SE 8.1 mph - N/A   Overcast
10:52 PM 19.9 °F 9.3 °F 15.1 °F 81% 30.17 in 10.0 mi SSE 9.2 mph - N/A   Overcast
11:52 PM 19.9 °F 10.1 °F 14.0 °F 78% 30.17 in 10.0 mi SSE 8.1 mph - N/A   Overcast